When you browse on this site, cookies collect data to enhance your experience and personalize the content and advertising you see.
Visit our Privacy Policy to learn more. By continuing to use the site, you agree to this use of cookies and data.
  • In Latvia
  • List of Countries
  • For 7 days
  • Water Temperature
  • Weather Map
  • Weather Widgets
  • user-avatar
    Login

    Hourly Weather Taba

    Today, 26 May, Tuesday

    Time Temperature Precipitation Wind Pressure Humidity
    00:00 +17°C° 0 mm 3 mps 693 mmHg 35%
    01:00 +17°C° 0 mm 2 mps 692 mmHg 35%
    02:00 +16°C° 0 mm 2 mps 692 mmHg 36%
    03:00 +16°C° 0 mm 2 mps 692 mmHg 36%
    04:00 +16°C° 0 mm 2 mps 692 mmHg 37%
    05:00 +16°C° 0 mm 2 mps 692 mmHg 38%
    06:00 +18°C° 0 mm 2 mps 692 mmHg 34%
    07:00 +20°C° 0 mm 2 mps 693 mmHg 30%
    08:00 +23°C° 0 mm 2 mps 693 mmHg 26%
    09:00 +25°C° 0 mm 2 mps 693 mmHg 22%
    10:00 +27°C° 0 mm 2 mps 693 mmHg 18%
    11:00 +29°C° 0 mm 2 mps 694 mmHg 14%
    12:00 +31°C° 0 mm 2 mps 693 mmHg 13%
    13:00 +32°C° 0 mm 2 mps 693 mmHg 11%
    14:00 +34°C° 0 mm 2 mps 693 mmHg 10%
    15:00 +34°C° 0 mm 2 mps 693 mmHg 10%
    16:00 +34°C° 0 mm 2 mps 692 mmHg 10%
    17:00 +34°C° 0 mm 2 mps 692 mmHg 10%
    18:00 +30°C° 0 mm 3 mps 692 mmHg 18%
    19:00 +27°C° 0 mm 4 mps 692 mmHg 27%
    20:00 +23°C° 0 mm 5 mps 692 mmHg 35%
    21:00 +22°C° 0 mm 4 mps 692 mmHg 38%
    22:00 +21°C° 0 mm 3 mps 692 mmHg 41%
    23:00 +20°C° 0 mm 3 mps 692 mmHg 44%

    Tomorrow, 27 May, Wednesday

    Time Temperature Precipitation Wind Pressure Humidity
    00:00 +20°C° 0 mm 3 mps 691 mmHg 43%
    01:00 +19°C° 0 mm 2 mps 691 mmHg 43%
    02:00 +19°C° 0 mm 2 mps 690 mmHg 42%
    03:00 +19°C° 0 mm 2 mps 691 mmHg 41%
    04:00 +18°C° 0 mm 2 mps 691 mmHg 40%
    05:00 +18°C° 0 mm 2 mps 691 mmHg 39%
    06:00 +20°C° 0 mm 2 mps 691 mmHg 35%
    07:00 +22°C° 0 mm 3 mps 692 mmHg 30%
    08:00 +24°C° 0 mm 3 mps 692 mmHg 26%
    09:00 +26°C° 0 mm 3 mps 692 mmHg 24%
    10:00 +28°C° 0 mm 4 mps 693 mmHg 22%
    11:00 +29°C° 0 mm 4 mps 693 mmHg 20%
    12:00 +30°C° 0 mm 4 mps 693 mmHg 19%
    13:00 +32°C° 0 mm 4 mps 693 mmHg 17%
    14:00 +33°C° 0 mm 4 mps 693 mmHg 16%
    15:00 +33°C° 0 mm 5 mps 693 mmHg 17%
    16:00 +32°C° 0 mm 5 mps 693 mmHg 17%
    17:00 +32°C° 0 mm 6 mps 693 mmHg 18%
    18:00 +28°C° 0 mm 6 mps 693 mmHg 24%
    19:00 +24°C° 0 mm 6 mps 693 mmHg 31%
    20:00 +22°C° 0 mm 7 mps 693 mmHg 37%
    21:00 +21°C° 0 mm 6 mps 693 mmHg 39%
    22:00 +20°C° 0 mm 4 mps 693 mmHg 42%
    23:00 +19°C° 0 mm 3 mps 693 mmHg 44%

    Day after tomorrow, 28 May, Thursday

    Time Temperature Precipitation Wind Pressure Humidity
    00:00 +18°C° 0 mm 3 mps 692 mmHg 48%
    01:00 +18°C° 0 mm 3 mps 692 mmHg 51%
    02:00 +17°C° 0 mm 3 mps 692 mmHg 55%
    03:00 +16°C° 0 mm 3 mps 692 mmHg 60%
    04:00 +16°C° 0 mm 3 mps 692 mmHg 64%
    05:00 +14°C° 0 mm 3 mps 692 mmHg 69%
    06:00 +16°C° 0 mm 3 mps 692 mmHg 64%
    07:00 +18°C° 0 mm 3 mps 693 mmHg 59%
    08:00 +19°C° 0 mm 4 mps 693 mmHg 53%
    09:00 +21°C° 0 mm 4 mps 693 mmHg 45%
    10:00 +23°C° 0 mm 4 mps 693 mmHg 37%
    11:00 +27°C° 0 mm 4 mps 693 mmHg 29%
    12:00 +28°C° 0 mm 5 mps 693 mmHg 26%
    13:00 +29°C° 0 mm 5 mps 693 mmHg 23%
    14:00 +30°C° 0 mm 5 mps 693 mmHg 21%
    15:00 +30°C° 0 mm 6 mps 692 mmHg 20%
    16:00 +29°C° 0 mm 6 mps 692 mmHg 20%
    17:00 +29°C° 0 mm 7 mps 692 mmHg 20%
    18:00 +26°C° 0 mm 7 mps 692 mmHg 28%
    19:00 +23°C° 0 mm 7 mps 692 mmHg 36%
    20:00 +20°C° 0 mm 7 mps 692 mmHg 44%
    21:00 +20°C° 0 mm 6 mps 692 mmHg 41%
    22:00 +19°C° 0 mm 5 mps 693 mmHg 39%
    23:00 +18°C° 0 mm 4 mps 693 mmHg 36%

    29 May, Friday

    Time Temperature Precipitation Wind Pressure Humidity
    00:00 +17°C° 0 mm 4 mps 693 mmHg 44%
    01:00 +15°C° 0 mm 4 mps 692 mmHg 52%
    02:00 +14°C° 0 mm 4 mps 692 mmHg 61%
    03:00 +14°C° 0 mm 3 mps 692 mmHg 64%
    04:00 +14°C° 0 mm 3 mps 692 mmHg 67%
    05:00 +14°C° 0 mm 2 mps 692 mmHg 71%
    06:00 +16°C° 0 mm 3 mps 693 mmHg 59%
    07:00 +18°C° 0 mm 3 mps 693 mmHg 46%
    08:00 +20°C° 0 mm 3 mps 694 mmHg 34%
    09:00 +22°C° 0 mm 4 mps 694 mmHg 30%
    10:00 +23°C° 0 mm 4 mps 694 mmHg 26%
    11:00 +26°C° 0 mm 5 mps 694 mmHg 22%
    12:00 +27°C° 0 mm 5 mps 694 mmHg 20%
    13:00 +27°C° 0 mm 5 mps 694 mmHg 18%
    14:00 +28°C° 0 mm 6 mps 693 mmHg 16%
    15:00 +27°C° 0 mm 6 mps 693 mmHg 17%
    16:00 +27°C° 0 mm 7 mps 693 mmHg 18%
    17:00 +26°C° 0 mm 8 mps 693 mmHg 19%
    18:00 +23°C° 0 mm 7 mps 693 mmHg 27%
    19:00 +21°C° 0 mm 7 mps 693 mmHg 36%
    20:00 +17°C° 0 mm 7 mps 693 mmHg 45%
    21:00 +16°C° 0 mm 6 mps 693 mmHg 51%
    22:00 +15°C° 0 mm 5 mps 693 mmHg 58%
    23:00 +14°C° 0 mm 4 mps 693 mmHg 64%

    30 May, Saturday

    Time Temperature Precipitation Wind Pressure Humidity
    00:00 +14°C° 0 mm 4 mps 693 mmHg 68%
    01:00 +13°C° 0 mm 4 mps 692 mmHg 72%
    02:00 +12°C° 0 mm 3 mps 692 mmHg 76%
    03:00 +12°C° 0 mm 3 mps 692 mmHg 77%
    04:00 +12°C° 0 mm 3 mps 692 mmHg 78%
    05:00 +11°C° 0 mm 3 mps 692 mmHg 78%
    06:00 +14°C° 0 mm 4 mps 693 mmHg 63%
    07:00 +17°C° 0 mm 4 mps 693 mmHg 48%
    08:00 +19°C° 0 mm 5 mps 694 mmHg 32%
    09:00 +21°C° 0 mm 5 mps 694 mmHg 27%
    10:00 +23°C° 0 mm 5 mps 694 mmHg 22%
    11:00 +26°C° 0 mm 4 mps 694 mmHg 17%
    12:00 +27°C° 0 mm 4 mps 694 mmHg 16%
    13:00 +28°C° 0 mm 4 mps 693 mmHg 15%
    14:00 +29°C° 0 mm 4 mps 693 mmHg 13%
    15:00 +29°C° 0 mm 5 mps 693 mmHg 13%
    16:00 +29°C° 0 mm 5 mps 693 mmHg 13%
    17:00 +29°C° 0 mm 6 mps 693 mmHg 13%
    18:00 +26°C° 0 mm 7 mps 693 mmHg 26%
    19:00 +22°C° 0 mm 8 mps 693 mmHg 39%
    20:00 +18°C° 0 mm 8 mps 692 mmHg 52%
    21:00 +17°C° 0 mm 7 mps 693 mmHg 57%
    22:00 +16°C° 0 mm 6 mps 693 mmHg 63%
    23:00 +15°C° 0 mm 4 mps 693 mmHg 69%

    31 May, Sunday

    Time Temperature Precipitation Wind Pressure Humidity
    00:00 +14°C° 0 mm 4 mps 693 mmHg 72%
    01:00 +14°C° 0 mm 4 mps 692 mmHg 75%
    02:00 +13°C° 0 mm 4 mps 692 mmHg 79%
    03:00 +13°C° 0 mm 3 mps 692 mmHg 80%
    04:00 +13°C° 0 mm 3 mps 692 mmHg 81%
    05:00 +12°C° 0 mm 3 mps 692 mmHg 83%
    06:00 +16°C° 0 mm 3 mps 693 mmHg 66%
    07:00 +18°C° 0 mm 4 mps 693 mmHg 48%
    08:00 +20°C° 0 mm 4 mps 693 mmHg 31%
    09:00 +22°C° 0 mm 4 mps 693 mmHg 26%
    10:00 +25°C° 0 mm 5 mps 693 mmHg 22%
    11:00 +28°C° 0 mm 5 mps 693 mmHg 17%
    12:00 +29°C° 0 mm 5 mps 693 mmHg 16%
    13:00 +30°C° 0 mm 5 mps 693 mmHg 14%
    14:00 +32°C° 0 mm 5 mps 693 mmHg 13%
    15:00 +32°C° 0 mm 6 mps 692 mmHg 14%
    16:00 +30°C° 0 mm 7 mps 692 mmHg 16%
    17:00 +29°C° 0 mm 8 mps 692 mmHg 17%
    18:00 +26°C° 0 mm 8 mps 692 mmHg 29%
    19:00 +22°C° 0 mm 7 mps 692 mmHg 40%
    20:00 +18°C° 0 mm 7 mps 692 mmHg 51%
    21:00 +17°C° 0 mm 6 mps 692 mmHg 57%
    22:00 +16°C° 0 mm 5 mps 692 mmHg 63%
    23:00 +15°C° 0 mm 5 mps 692 mmHg 68%
    Show more